| time (UTC) | temp F | wind direction | speed MPH | gust MPH | rain 1hr in | rain 24hr in | rain mn in | humidity % | barometer mb |
| 20260508102310 | 58 | 248 | 1.0 | 1.0 | 0.00 | 0.00 | 0.00 | 94 | 1012.8 |
| 20260508101806 | 58 | 186 | 2.0 | 2.0 | 0.00 | 0.00 | 0.00 | 94 | 1012.7 |
| 20260508101304 | 58 | 161 | 2.0 | 4.0 | 0.00 | 0.00 | 0.00 | 94 | 1012.6 |
| 20260508100801 | 59 | 150 | 2.0 | 3.0 | 0.00 | 0.00 | 0.00 | 94 | 1012.7 |
| 20260508100300 | 59 | 336 | 0.0 | 2.0 | 0.00 | 0.00 | 0.00 | 93 | 1012.7 |
| 20260508095755 | 59 | 312 | 2.0 | 2.0 | 0.00 | 0.00 | 0.00 | 93 | 1012.9 |
| 20260508095253 | 59 | 355 | 0.0 | 2.0 | 0.00 | 0.00 | 0.00 | 93 | 1012.3 |
| 20260508094749 | 59 | 4 | 1.0 | 3.0 | 0.00 | 0.00 | 0.00 | 92 | 1012.4 |
| 20260508094247 | 59 | 359 | 2.0 | 3.0 | 0.00 | 0.00 | 0.00 | 91 | 1012.1 |
| 20260508093744 | 60 | 41 | 2.0 | 3.0 | 0.00 | 0.00 | 0.00 | 92 | 1012.0 |
| 20260508093241 | 59 | 61 | 0.0 | 2.0 | 0.00 | 0.00 | 0.00 | 92 | 1012.2 |
| 20260508092738 | 60 | 126 | 0.0 | 2.0 | 0.00 | 0.00 | 0.00 | 92 | 1012.1 |
| 20260508092236 | 60 | 162 | 3.0 | 4.0 | 0.00 | 0.00 | 0.00 | 92 | 1012.0 |
| 20260508091734 | 60 | 121 | 3.0 | 3.0 | 0.00 | 0.00 | 0.00 | 92 | 1012.1 |
| 20260508091231 | 60 | 116 | 2.0 | 4.0 | 0.00 | 0.00 | 0.00 | 92 | 1012.0 |
| 20260508090728 | 60 | 122 | 2.0 | 3.0 | 0.00 | 0.00 | 0.00 | 92 | 1012.2 |
| 20260508090226 | 60 | 322 | 0.0 | 1.0 | 0.00 | 0.00 | 0.00 | 93 | 1012.4 |
| 20260508085722 | 60 | 352 | 0.0 | 2.0 | 0.00 | 0.00 | 0.00 | 92 | 1012.3 |
| 20260508085219 | 60 | 89 | 2.0 | 3.0 | 0.00 | 0.00 | 0.00 | 93 | 1012.1 |
| 20260508084715 | 60 | 112 | 1.0 | 3.0 | 0.00 | 0.00 | 0.00 | 93 | 1012.2 |
| 20260508084213 | 60 | 138 | 1.0 | 5.0 | 0.00 | 0.00 | 0.00 | 93 | 1012.0 |
| 20260508083710 | 60 | 128 | 2.0 | 3.0 | 0.00 | 0.00 | 0.00 | 93 | 1012.1 |
| 20260508083208 | 60 | 135 | 3.0 | 4.0 | 0.00 | 0.00 | 0.00 | 92 | 1012.3 |
| 20260508082702 | 61 | 127 | 2.0 | 3.0 | 0.00 | 0.00 | 0.00 | 92 | 1012.5 |
| 20260508082200 | 61 | 100 | 0.0 | 2.0 | 0.00 | 0.00 | 0.00 | 92 | 1012.5 |
| 20260508081657 | 61 | 107 | 2.0 | 3.0 | 0.00 | 0.00 | 0.00 | 92 | 1012.3 |
| 20260508081153 | 61 | 95 | 2.0 | 3.0 | 0.00 | 0.00 | 0.00 | 92 | 1012.6 |
| 20260508080651 | 61 | 124 | 2.0 | 2.0 | 0.00 | 0.00 | 0.00 | 92 | 1012.7 |
| 20260508080149 | 61 | 85 | 3.0 | 4.0 | 0.00 | 0.00 | 0.00 | 93 | 1012.8 |
| 20260508075645 | 61 | 117 | 2.0 | 3.0 | 0.00 | 0.00 | 0.00 | 93 | 1012.8 |
| 20260508075142 | 61 | 98 | 2.0 | 3.0 | 0.00 | 0.00 | 0.00 | 93 | 1013.0 |
| 20260508074640 | 60 | 50 | 0.0 | 2.0 | 0.00 | 0.00 | 0.00 | 93 | 1013.3 |
| 20260508074137 | 60 | 321 | 0.0 | 2.0 | 0.00 | 0.00 | 0.00 | 93 | 1013.4 |
| 20260508073634 | 60 | 0 | 0.0 | 1.0 | 0.00 | 0.00 | 0.00 | 94 | 1013.4 |
| 20260508073132 | 60 | 328 | 1.0 | 2.0 | 0.00 | 0.00 | 0.00 | 94 | 1013.4 |
| 20260508072627 | 60 | 321 | 0.0 | 2.0 | 0.00 | 0.00 | 0.00 | 94 | 1013.2 |
| 20260508072124 | 60 | 321 | 2.0 | 2.0 | 0.00 | 0.00 | 0.00 | 94 | 1013.2 |
| 20260508071622 | 60 | 321 | 2.0 | 3.0 | 0.00 | 0.00 | 0.00 | 94 | 1013.2 |
| 20260508071120 | 60 | 315 | 1.0 | 2.0 | 0.00 | 0.00 | 0.00 | 94 | 1013.3 |
| 20260508070617 | 59 | 304 | 2.0 | 3.0 | 0.00 | 0.00 | 0.00 | 94 | 1013.1 |
| 20260508070115 | 60 | 317 | 2.0 | 3.0 | 0.00 | 0.00 | 0.00 | 94 | 1013.1 |
| 20260508065607 | 60 | 348 | 1.0 | 2.0 | 0.00 | 0.00 | 0.00 | 93 | 1013.1 |
| 20260508065105 | 60 | 21 | 1.0 | 2.0 | 0.00 | 0.00 | 0.00 | 93 | 1013.2 |
| 20260508064602 | 60 | 50 | 0.0 | 2.0 | 0.00 | 0.00 | 0.00 | 93 | 1013.2 |
| 20260508064100 | 60 | 89 | 1.0 | 2.0 | 0.00 | 0.00 | 0.00 | 93 | 1012.9 |
| 20260508063557 | 60 | 106 | 0.0 | 2.0 | 0.00 | 0.00 | 0.00 | 93 | 1013.1 |
| 20260508063055 | 60 | 114 | 1.0 | 2.0 | 0.00 | 0.00 | 0.00 | 93 | 1013.1 |
| 20260508062552 | 60 | 92 | 1.0 | 2.0 | 0.00 | 0.00 | 0.00 | 93 | 1013.2 |
| 20260508062049 | 60 | 62 | 2.0 | 3.0 | 0.00 | 0.00 | 0.00 | 93 | 1013.3 |
| 20260508061546 | 60 | 18 | 2.0 | 2.0 | 0.00 | 0.00 | 0.00 | 93 | 1013.3 |
| 20260508061043 | 60 | 16 | 2.0 | 2.0 | 0.00 | 0.00 | 0.00 | 93 | 1013.5 |
| 20260508060540 | 60 | 12 | 1.0 | 2.0 | 0.00 | 0.00 | 0.00 | 93 | 1013.4 |
| 20260508060038 | 60 | 37 | 0.0 | 2.0 | 0.00 | 0.00 | 0.00 | 93 | 1013.5 |
| 20260508055532 | 60 | 24 | 1.0 | 2.0 | 0.00 | 0.00 | 0.00 | 94 | 1013.5 |
| 20260508055030 | 59 | 40 | 0.0 | 1.0 | 0.00 | 0.00 | 0.00 | 94 | 1013.4 |
| 20260508054526 | 59 | 38 | 0.0 | 1.0 | 0.00 | 0.00 | 0.00 | 94 | 1013.8 |
| 20260508054024 | 59 | 6 | 1.0 | 2.0 | 0.00 | 0.00 | 0.00 | 94 | 1013.5 |
| 20260508053520 | 60 | 28 | 0.0 | 1.0 | 0.00 | 0.00 | 0.00 | 93 | 1013.8 |
| 20260508053019 | 60 | 166 | 0.0 | 0.0 | 0.00 | 0.00 | 0.00 | 93 | 1013.7 |
| 20260508052516 | 60 | 166 | 0.0 | 0.0 | 0.00 | 0.00 | 0.00 | 93 | 1013.9 |
| 20260508052012 | 60 | 166 | 0.0 | 0.0 | 0.00 | 0.00 | 0.00 | 93 | 1013.8 |
| 20260508051509 | 60 | 230 | 0.0 | 1.0 | 0.00 | 0.00 | 0.00 | 92 | 1013.8 |
| 20260508051004 | 60 | 322 | 0.0 | 0.0 | 0.00 | 0.00 | 0.00 | 92 | 1014.0 |
| 20260508050501 | 60 | 180 | 0.0 | 0.0 | 0.00 | 0.00 | 0.00 | 91 | 1013.9 |
| 20260508045957 | 61 | 230 | 0.0 | 2.0 | 0.00 | 0.00 | 0.00 | 91 | 1013.9 |
| 20260508045454 | 61 | 175 | 1.0 | 3.0 | 0.00 | 0.00 | 0.00 | 91 | 1013.9 |
| 20260508044952 | 61 | 207 | 1.0 | 2.0 | 0.00 | 0.00 | 0.00 | 91 | 1013.9 |
| 20260508044449 | 61 | 228 | 0.0 | 2.0 | 0.00 | 0.00 | 0.00 | 90 | 1013.7 |
| 20260508043944 | 61 | 183 | 2.0 | 3.0 | 0.00 | 0.00 | 0.00 | 90 | 1013.7 |
| 20260508043442 | 61 | 310 | 1.0 | 1.0 | 0.00 | 0.00 | 0.00 | 89 | 1013.9 |
| 20260508042938 | 61 | 172 | 2.0 | 3.0 | 0.00 | 0.00 | 0.00 | 89 | 1013.7 |
| 20260508042436 | 62 | 129 | 0.0 | 1.0 | 0.00 | 0.00 | 0.00 | 88 | 1013.3 |
| 20260508041932 | 62 | 167 | 1.0 | 3.0 | 0.00 | 0.00 | 0.00 | 88 | 1013.8 |
| 20260508041429 | 62 | 195 | 1.0 | 3.0 | 0.00 | 0.00 | 0.00 | 87 | 1013.8 |
| 20260508040926 | 62 | 177 | 1.0 | 2.0 | 0.00 | 0.00 | 0.00 | 87 | 1013.7 |
| 20260508040423 | 62 | 175 | 2.0 | 2.0 | 0.00 | 0.00 | 0.00 | 87 | 1013.8 |
| 20260508035921 | 62 | 180 | 0.0 | 2.0 | 0.00 | 0.00 | 0.00 | 87 | 1014.0 |
| 20260508035417 | 62 | 166 | 0.0 | 3.0 | 0.00 | 0.00 | 0.00 | 87 | 1013.9 |
| 20260508034914 | 62 | 165 | 1.0 | 2.0 | 0.00 | 0.00 | 0.00 | 87 | 1013.7 |
| 20260508034412 | 62 | 139 | 0.0 | 1.0 | 0.00 | 0.00 | 0.00 | 86 | 1013.8 |
| 20260508033908 | 62 | 129 | 0.0 | 1.0 | 0.00 | 0.00 | 0.00 | 85 | 1013.5 |
| 20260508033406 | 63 | 147 | 0.0 | 1.0 | 0.00 | 0.00 | 0.00 | 83 | 1013.5 |
| 20260508032904 | 63 | 155 | 0.0 | 2.0 | 0.00 | 0.00 | 0.00 | 83 | 1013.8 |
| 20260508032401 | 63 | 187 | 2.0 | 2.0 | 0.00 | 0.00 | 0.00 | 84 | 1013.4 |
| 20260508031857 | 63 | 246 | 0.0 | 1.0 | 0.00 | 0.00 | 0.00 | 83 | 1013.4 |
| 20260508031354 | 62 | 142 | 0.0 | 1.0 | 0.00 | 0.00 | 0.00 | 83 | 1013.3 |
| 20260508030844 | 63 | 89 | 0.0 | 1.0 | 0.00 | 0.00 | 0.00 | 83 | 1012.9 |
| 20260508030342 | 63 | 142 | 0.0 | 0.0 | 0.00 | 0.00 | 0.00 | 82 | 1013.1 |
| 20260508025839 | 63 | 103 | 0.0 | 2.0 | 0.00 | 0.00 | 0.00 | 81 | 1013.1 |
| 20260508025336 | 63 | 71 | 0.0 | 2.0 | 0.00 | 0.00 | 0.00 | 81 | 1012.5 |
| 20260508024832 | 63 | 85 | 1.0 | 3.0 | 0.00 | 0.00 | 0.00 | 80 | 1012.6 |
| 20260508024328 | 64 | 87 | 2.0 | 2.0 | 0.00 | 0.00 | 0.00 | 79 | 1012.6 |
| 20260508023825 | 64 | 129 | 0.0 | 1.0 | 0.00 | 0.00 | 0.00 | 80 | 1012.8 |
| 20260508023317 | 64 | 136 | 0.0 | 3.0 | 0.00 | 0.00 | 0.00 | 78 | 1012.9 |
| 20260508022813 | 64 | 109 | 1.0 | 3.0 | 0.00 | 0.00 | 0.00 | 77 | 1012.9 |
| 20260508022309 | 64 | 129 | 1.0 | 2.0 | 0.00 | 0.00 | 0.00 | 76 | 1012.9 |
| 20260508021807 | 64 | 85 | 2.0 | 3.0 | 0.00 | 0.00 | 0.00 | 76 | 1012.6 |
| 20260508021303 | 64 | 87 | 1.0 | 3.0 | 0.00 | 0.00 | 0.00 | 77 | 1012.8 |
| 20260508020759 | 64 | 64 | 2.0 | 3.0 | 0.00 | 0.00 | 0.00 | 78 | 1012.7 |
| 20260508020257 | 64 | 95 | 1.0 | 3.0 | 0.00 | 0.00 | 0.00 | 79 | 1012.6 |
| 20260508015753 | 64 | 100 | 1.0 | 3.0 | 0.00 | 0.00 | 0.00 | 79 | 1012.8 |
| 20260508015251 | 64 | 110 | 2.0 | 3.0 | 0.00 | 0.00 | 0.00 | 77 | 1012.6 |
| 20260508014747 | 64 | 129 | 0.0 | 3.0 | 0.00 | 0.00 | 0.00 | 76 | 1012.7 |
| 20260508014244 | 64 | 123 | 0.0 | 3.0 | 0.00 | 0.00 | 0.00 | 77 | 1012.8 |
| 20260508013740 | 64 | 176 | 0.0 | 2.0 | 0.00 | 0.00 | 0.00 | 78 | 1013.0 |
| 20260508013237 | 64 | 173 | 0.0 | 3.0 | 0.00 | 0.00 | 0.00 | 78 | 1012.8 |
| 20260508012734 | 65 | 148 | 0.0 | 3.0 | 0.00 | 0.00 | 0.00 | 76 | 1012.7 |
| 20260508012231 | 65 | 150 | 2.0 | 3.0 | 0.00 | 0.00 | 0.00 | 75 | 1012.7 |
| 20260508011729 | 65 | 193 | 0.0 | 2.0 | 0.00 | 0.00 | 0.00 | 77 | 1013.0 |
| 20260508011226 | 65 | 129 | 0.0 | 0.0 | 0.00 | 0.00 | 0.00 | 74 | 1012.7 |
| 20260508010722 | 66 | 102 | 0.0 | 2.0 | 0.00 | 0.00 | 0.00 | 74 | 1012.7 |
| 20260508010221 | 66 | 135 | 0.0 | 2.0 | 0.00 | 0.00 | 0.00 | 75 | 1012.7 |
| 20260508005718 | 66 | 134 | 1.0 | 2.0 | 0.00 | 0.00 | 0.00 | 75 | 1012.7 |
| 20260508005214 | 66 | 127 | 1.0 | 3.0 | 0.00 | 0.00 | 0.00 | 74 | 1012.6 |
| 20260508004710 | 66 | 127 | 1.0 | 2.0 | 0.00 | 0.00 | 0.00 | 75 | 1012.8 |
| 20260508004207 | 67 | 89 | 0.0 | 2.0 | 0.00 | 0.00 | 0.00 | 76 | 1012.7 |
| 20260508003703 | 67 | 184 | 0.0 | 2.0 | 0.00 | 0.00 | 0.00 | 77 | 1012.6 |
| 20260508003201 | 67 | 127 | 1.0 | 3.0 | 0.00 | 0.00 | 0.00 | 75 | 1012.7 |
| 20260508002657 | 67 | 135 | 3.0 | 4.0 | 0.00 | 0.00 | 0.00 | 75 | 1012.7 |
| 20260508002155 | 67 | 159 | 0.0 | 3.0 | 0.00 | 0.00 | 0.00 | 75 | 1013.0 |
| 20260508001650 | 67 | 171 | 1.0 | 3.0 | 0.00 | 0.00 | 0.00 | 75 | 1012.8 |
| 20260508001146 | 67 | 160 | 0.0 | 2.0 | 0.00 | 0.00 | 0.00 | 74 | 1012.9 |
| 20260508000641 | 67 | 180 | 0.0 | 2.0 | 0.00 | 0.00 | 0.00 | 73 | 1013.0 |
| 20260508000134 | 67 | 181 | 0.0 | 2.0 | 0.00 | 0.00 | 0.00 | 72 | 1012.9 |
| 20260507235630 | 68 | 135 | 0.0 | 1.0 | 0.00 | 0.00 | 0.00 | 74 | 1013.2 |
| 20260507235128 | 68 | 173 | 0.0 | 1.0 | 0.00 | 0.00 | 0.00 | 72 | 1013.1 |
| 20260507234624 | 68 | 196 | 2.0 | 3.0 | 0.00 | 0.00 | 0.00 | 72 | 1013.3 |
| 20260507234121 | 68 | 176 | 1.0 | 2.0 | 0.00 | 0.00 | 0.00 | 72 | 1013.1 |
| 20260507233618 | 68 | 163 | 0.0 | 3.0 | 0.00 | 0.00 | 0.00 | 73 | 1013.4 |
| 20260507233117 | 68 | 136 | 2.0 | 3.0 | 0.00 | 0.00 | 0.00 | 72 | 1013.2 |
| 20260507232613 | 68 | 183 | 1.0 | 3.0 | 0.00 | 0.00 | 0.00 | 70 | 1013.2 |
| 20260507232110 | 69 | 176 | 1.0 | 2.0 | 0.00 | 0.00 | 0.00 | 66 | 1013.0 |
| 20260507231606 | 69 | 142 | 0.0 | 2.0 | 0.00 | 0.00 | 0.00 | 69 | 1012.8 |
| 20260507231103 | 69 | 190 | 0.0 | 3.0 | 0.00 | 0.00 | 0.00 | 67 | 1012.8 |
| 20260507230600 | 69 | 151 | 1.0 | 2.0 | 0.00 | 0.00 | 0.00 | 68 | 1013.0 |
| 20260507230056 | 69 | 80 | 0.0 | 2.0 | 0.00 | 0.00 | 0.00 | 66 | 1013.1 |
| 20260507225551 | 69 | 89 | 0.0 | 0.0 | 0.00 | 0.00 | 0.00 | 66 | 1013.4 |
| 20260507225048 | 69 | 185 | 0.0 | 2.0 | 0.00 | 0.00 | 0.00 | 67 | 1013.4 |
| 20260507224544 | 69 | 38 | 0.0 | 2.0 | 0.00 | 0.00 | 0.00 | 66 | 1013.1 |
| 20260507224041 | 69 | 77 | 2.0 | 2.0 | 0.00 | 0.00 | 0.00 | 63 | 1013.2 |
| 20260507223537 | 69 | 134 | 1.0 | 2.0 | 0.00 | 0.00 | 0.00 | 64 | 1013.2 |
| 20260507223034 | 69 | 217 | 0.0 | 2.0 | 0.00 | 0.00 | 0.00 | 67 | 1013.4 |
| 20260507222530 | 69 | 138 | 1.0 | 4.0 | 0.00 | 0.00 | 0.00 | 64 | 1013.3 |
| 20260507222021 | 69 | 201 | 2.0 | 3.0 | 0.00 | 0.00 | 0.00 | 63 | 1013.5 |
| 20260507221518 | 69 | 186 | 0.0 | 2.0 | 0.00 | 0.00 | 0.00 | 66 | 1013.3 |
| 20260507221015 | 69 | 152 | 2.0 | 4.0 | 0.00 | 0.00 | 0.00 | 63 | 1013.4 |
| 20260507220512 | 69 | 216 | 2.0 | 4.0 | 0.00 | 0.00 | 0.00 | 64 | 1013.9 |
| 20260507220010 | 69 | 180 | 2.0 | 5.0 | 0.00 | 0.00 | 0.00 | 63 | 1013.8 |
| 20260507215505 | 69 | 163 | 2.0 | 4.0 | 0.00 | 0.00 | 0.00 | 62 | 1013.8 |
| 20260507215003 | 69 | 128 | 0.0 | 2.0 | 0.00 | 0.00 | 0.00 | 64 | 1013.5 |
| 20260507214500 | 69 | 183 | 3.0 | 4.0 | 0.00 | 0.00 | 0.00 | 62 | 1013.7 |
| 20260507213955 | 69 | 187 | 3.0 | 3.0 | 0.00 | 0.00 | 0.00 | 62 | 1013.4 |
| 20260507213453 | 69 | 202 | 0.0 | 3.0 | 0.00 | 0.00 | 0.00 | 61 | 1013.7 |
| 20260507212949 | 69 | 162 | 0.0 | 4.0 | 0.00 | 0.00 | 0.00 | 63 | 1013.9 |
| 20260507212445 | 69 | 225 | 0.0 | 5.0 | 0.00 | 0.00 | 0.00 | 64 | 1013.7 |
| 20260507211942 | 69 | 142 | 0.0 | 4.0 | 0.00 | 0.00 | 0.00 | 65 | 1013.7 |
| 20260507211439 | 69 | 212 | 0.0 | 5.0 | 0.00 | 0.00 | 0.00 | 64 | 1013.9 |
| 20260507210936 | 69 | 157 | 3.0 | 4.0 | 0.00 | 0.00 | 0.00 | 64 | 1014.2 |
| 20260507210433 | 69 | 198 | 3.0 | 5.0 | 0.00 | 0.00 | 0.00 | 64 | 1014.2 |
| 20260507205929 | 69 | 151 | 2.0 | 5.0 | 0.00 | 0.00 | 0.00 | 64 | 1014.3 |
| 20260507205427 | 69 | 159 | 3.0 | 5.0 | 0.00 | 0.00 | 0.00 | 63 | 1014.6 |
| 20260507204922 | 69 | 173 | 3.0 | 5.0 | 0.00 | 0.00 | 0.00 | 64 | 1014.4 |
| 20260507204418 | 69 | 146 | 3.0 | 4.0 | 0.00 | 0.00 | 0.00 | 64 | 1014.5 |
| 20260507203910 | 69 | 141 | 3.0 | 6.0 | 0.00 | 0.00 | 0.00 | 62 | 1014.7 |
| 20260507203403 | 69 | 152 | 4.0 | 7.0 | 0.00 | 0.00 | 0.00 | 63 | 1014.4 |
| 20260507202859 | 69 | 161 | 3.0 | 7.0 | 0.00 | 0.00 | 0.00 | 63 | 1014.3 |
| 20260507202355 | 69 | 131 | 3.0 | 9.0 | 0.00 | 0.00 | 0.00 | 63 | 1014.5 |
| 20260507201851 | 70 | 308 | 0.0 | 4.0 | 0.00 | 0.00 | 0.00 | 61 | 1014.5 |
| 20260507201346 | 69 | 124 | 2.0 | 7.0 | 0.00 | 0.00 | 0.00 | 61 | 1014.5 |
| 20260507200843 | 70 | 131 | 5.0 | 7.0 | 0.00 | 0.00 | 0.00 | 58 | 1014.3 |
| 20260507200339 | 70 | 109 | 1.0 | 5.0 | 0.00 | 0.00 | 0.00 | 59 | 1014.2 |
| 20260507195835 | 69 | 35 | 2.0 | 4.0 | 0.00 | 0.00 | 0.00 | 59 | 1014.4 |
| 20260507195333 | 70 | 41 | 5.0 | 6.0 | 0.00 | 0.00 | 0.00 | 59 | 1014.5 |
| 20260507194830 | 70 | 51 | 3.0 | 5.0 | 0.00 | 0.00 | 0.00 | 60 | 1014.3 |
| 20260507194326 | 69 | 66 | 3.0 | 8.0 | 0.00 | 0.00 | 0.00 | 62 | 1014.4 |
| 20260507193822 | 69 | 116 | 3.0 | 7.0 | 0.00 | 0.00 | 0.00 | 60 | 1014.4 |
| 20260507193320 | 69 | 41 | 0.0 | 6.0 | 0.00 | 0.00 | 0.00 | 63 | 1014.5 |
| 20260507192815 | 69 | 352 | 2.0 | 6.0 | 0.00 | 0.00 | 0.00 | 60 | 1015.0 |
| 20260507192312 | 69 | 73 | 3.0 | 6.0 | 0.00 | 0.00 | 0.00 | 61 | 1015.0 |
| 20260507191808 | 69 | 41 | 7.0 | 8.0 | 0.00 | 0.00 | 0.00 | 58 | 1015.0 |
| 20260507191304 | 69 | 35 | 4.0 | 5.0 | 0.00 | 0.00 | 0.00 | 60 | 1015.2 |
| 20260507190801 | 69 | 66 | 4.0 | 7.0 | 0.00 | 0.00 | 0.00 | 61 | 1015.5 |
| 20260507190300 | 69 | 58 | 3.0 | 9.0 | 0.00 | 0.00 | 0.00 | 60 | 1015.7 |
| 20260507185758 | 69 | 0 | 0.0 | 3.0 | 0.00 | 0.00 | 0.00 | 60 | 1015.9 |
| 20260507185254 | 69 | 323 | 2.0 | 3.0 | 0.00 | 0.00 | 0.00 | 62 | 1016.0 |
| 20260507184752 | 69 | 132 | 4.0 | 7.0 | 0.00 | 0.00 | 0.00 | 62 | 1016.0 |
| 20260507184245 | 69 | 73 | 3.0 | 6.0 | 0.00 | 0.00 | 0.00 | 61 | 1016.0 |
| 20260507183742 | 70 | 47 | 3.0 | 6.0 | 0.00 | 0.00 | 0.00 | 61 | 1015.9 |
| 20260507183238 | 69 | 217 | 0.0 | 5.0 | 0.00 | 0.00 | 0.00 | 63 | 1015.9 |
| 20260507182736 | 68 | 66 | 3.0 | 10.0 | 0.00 | 0.00 | 0.00 | 64 | 1015.9 |
| 20260507182236 | 69 | 19 | 2.0 | 3.0 | 0.00 | 0.00 | 0.00 | 64 | 1015.7 |
| 20260507181733 | 68 | 0 | 2.0 | 8.0 | 0.00 | 0.00 | 0.00 | 67 | 1015.4 |
| 20260507181229 | 68 | 34 | 4.0 | 9.0 | 0.00 | 0.00 | 0.00 | 65 | 1015.3 |
| 20260507180726 | 68 | 338 | 4.0 | 7.0 | 0.00 | 0.00 | 0.00 | 67 | 1015.5 |
| 20260507180223 | 68 | 11 | 7.0 | 9.0 | 0.00 | 0.00 | 0.00 | 66 | 1015.9 |
| 20260507175718 | 67 | 41 | 5.0 | 11.0 | 0.00 | 0.00 | 0.00 | 63 | 1015.8 |
| 20260507175215 | 67 | 43 | 6.0 | 10.0 | 0.00 | 0.00 | 0.00 | 65 | 1015.9 |
| 20260507174713 | 67 | 8 | 8.0 | 11.0 | 0.00 | 0.00 | 0.00 | 67 | 1015.9 |
| 20260507174211 | 66 | 23 | 5.0 | 13.0 | 0.00 | 0.00 | 0.00 | 67 | 1015.9 |
| 20260507173708 | 68 | 48 | 6.0 | 10.0 | 0.00 | 0.00 | 0.00 | 65 | 1016.0 |
| 20260507173205 | 67 | 36 | 10.0 | 10.0 | 0.00 | 0.00 | 0.00 | 69 | 1016.0 |
| 20260507172701 | 67 | 0 | 4.0 | 12.0 | 0.00 | 0.00 | 0.00 | 68 | 1016.0 |
| 20260507172158 | 66 | 35 | 3.0 | 13.0 | 0.00 | 0.00 | 0.00 | 69 | 1016.1 |
| 20260507171653 | 67 | 275 | 2.0 | 6.0 | 0.00 | 0.00 | 0.00 | 69 | 1016.2 |
| 20260507171150 | 67 | 11 | 7.0 | 9.0 | 0.00 | 0.00 | 0.00 | 70 | 1016.2 |
| 20260507170647 | 66 | 0 | 7.0 | 13.0 | 0.00 | 0.00 | 0.00 | 69 | 1016.6 |
| 20260507170145 | 66 | 345 | 3.0 | 12.0 | 0.00 | 0.00 | 0.00 | 70 | 1016.5 |
| 20260507165640 | 66 | 8 | 10.0 | 13.0 | 0.00 | 0.00 | 0.00 | 69 | 1016.5 |
| 20260507165137 | 66 | 36 | 5.0 | 15.0 | 0.00 | 0.00 | 0.00 | 71 | 1016.6 |
| 20260507164632 | 66 | 33 | 3.0 | 10.0 | 0.00 | 0.00 | 0.00 | 70 | 1016.7 |
| 20260507164130 | 67 | 33 | 6.0 | 10.0 | 0.00 | 0.00 | 0.00 | 69 | 1017.1 |
| 20260507163627 | 66 | 39 | 4.0 | 12.0 | 0.00 | 0.00 | 0.00 | 71 | 1016.9 |
| 20260507163125 | 66 | 30 | 5.0 | 10.0 | 0.00 | 0.00 | 0.00 | 72 | 1017.1 |
| 20260507162620 | 66 | 1 | 5.0 | 11.0 | 0.00 | 0.00 | 0.00 | 71 | 1017.5 |
| 20260507162117 | 66 | 38 | 3.0 | 6.0 | 0.00 | 0.00 | 0.00 | 75 | 1017.4 |
| 20260507161613 | 65 | 38 | 5.0 | 9.0 | 0.00 | 0.00 | 0.00 | 74 | 1017.4 |
| 20260507161110 | 66 | 335 | 2.0 | 6.0 | 0.00 | 0.00 | 0.00 | 71 | 1017.3 |
| 20260507160607 | 65 | 12 | 10.0 | 11.0 | 0.00 | 0.00 | 0.00 | 71 | 1017.5 |
| 20260507155558 | 65 | 29 | 5.0 | 10.0 | 0.00 | 0.00 | 0.00 | 73 | 1017.4 |
| 20260507155055 | 66 | 17 | 4.0 | 8.0 | 0.00 | 0.00 | 0.00 | 72 | 1017.5 |
| 20260507154552 | 65 | 12 | 7.0 | 8.0 | 0.00 | 0.00 | 0.00 | 75 | 1017.3 |
| 20260507154049 | 64 | 17 | 3.0 | 8.0 | 0.00 | 0.00 | 0.00 | 75 | 1017.2 |
| 20260507153546 | 64 | 51 | 9.0 | 9.0 | 0.00 | 0.00 | 0.00 | 75 | 1017.3 |
| 20260507153042 | 63 | 12 | 4.0 | 11.0 | 0.00 | 0.00 | 0.00 | 76 | 1017.2 |
| 20260507152538 | 63 | 34 | 5.0 | 12.0 | 0.00 | 0.00 | 0.00 | 77 | 1017.3 |
| 20260507152035 | 63 | 39 | 3.0 | 11.0 | 0.00 | 0.00 | 0.00 | 76 | 1017.5 |
| 20260507151531 | 63 | 59 | 9.0 | 12.0 | 0.00 | 0.00 | 0.00 | 76 | 1017.4 |
| 20260507151028 | 62 | 46 | 4.0 | 9.0 | 0.00 | 0.00 | 0.00 | 76 | 1017.5 |
| 20260507150525 | 62 | 16 | 4.0 | 12.0 | 0.00 | 0.00 | 0.00 | 77 | 1017.5 |
| 20260507150022 | 62 | 9 | 5.0 | 11.0 | 0.00 | 0.00 | 0.00 | 80 | 1017.6 |
| 20260507145516 | 61 | 46 | 8.0 | 12.0 | 0.00 | 0.00 | 0.00 | 79 | 1017.6 |
| 20260507145015 | 61 | 24 | 7.0 | 11.0 | 0.00 | 0.00 | 0.00 | 80 | 1017.5 |
| 20260507144511 | 61 | 40 | 5.0 | 10.0 | 0.00 | 0.00 | 0.00 | 80 | 1017.7 |
| 20260507144009 | 62 | 45 | 4.0 | 10.0 | 0.00 | 0.00 | 0.00 | 79 | 1017.6 |
| 20260507143506 | 61 | 15 | 7.0 | 8.0 | 0.00 | 0.00 | 0.00 | 79 | 1017.9 |
| 20260507143003 | 62 | 28 | 2.0 | 9.0 | 0.00 | 0.00 | 0.00 | 81 | 1017.8 |
| 20260507142458 | 61 | 24 | 8.0 | 10.0 | 0.00 | 0.00 | 0.00 | 80 | 1017.8 |
| 20260507141955 | 60 | 1 | 4.0 | 7.0 | 0.00 | 0.00 | 0.00 | 82 | 1017.9 |
| 20260507141451 | 61 | 1 | 3.0 | 5.0 | 0.00 | 0.00 | 0.00 | 82 | 1018.3 |
| 20260507140948 | 61 | 11 | 5.0 | 5.0 | 0.00 | 0.00 | 0.00 | 83 | 1018.0 |
| 20260507140445 | 60 | 357 | 3.0 | 9.0 | 0.00 | 0.00 | 0.00 | 83 | 1018.0 |
| 20260507135942 | 60 | 34 | 3.0 | 7.0 | 0.00 | 0.00 | 0.00 | 84 | 1017.8 |
| 20260507135439 | 59 | 15 | 4.0 | 8.0 | 0.00 | 0.00 | 0.00 | 85 | 1018.1 |
| 20260507134936 | 58 | 8 | 3.0 | 6.0 | 0.00 | 0.00 | 0.00 | 86 | 1017.9 |
| 20260507134433 | 59 | 23 | 6.0 | 8.0 | 0.00 | 0.00 | 0.00 | 87 | 1017.9 |
| 20260507133929 | 58 | 7 | 5.0 | 6.0 | 0.00 | 0.00 | 0.00 | 88 | 1017.7 |
| 20260507133425 | 57 | 62 | 2.0 | 6.0 | 0.00 | 0.00 | 0.00 | 90 | 1018.0 |
| 20260507132924 | 57 | 5 | 3.0 | 6.0 | 0.00 | 0.00 | 0.00 | 89 | 1017.9 |
| 20260507132419 | 57 | 35 | 2.0 | 5.0 | 0.00 | 0.00 | 0.00 | 91 | 1018.0 |
| 20260507131916 | 57 | 334 | 2.0 | 4.0 | 0.00 | 0.00 | 0.00 | 92 | 1018.0 |
| 20260507131413 | 56 | 26 | 2.0 | 2.0 | 0.00 | 0.00 | 0.00 | 92 | 1018.0 |
| 20260507130910 | 56 | 23 | 0.0 | 4.0 | 0.00 | 0.00 | 0.00 | 92 | 1018.0 |
| 20260507130407 | 56 | 18 | 1.0 | 3.0 | 0.00 | 0.00 | 0.00 | 93 | 1017.9 |
| 20260507125906 | 55 | 20 | 2.0 | 5.0 | 0.00 | 0.00 | 0.00 | 93 | 1018.0 |
| 20260507125403 | 55 | 7 | 3.0 | 4.0 | 0.00 | 0.00 | 0.00 | 94 | 1017.8 |
| 20260507124901 | 55 | 21 | 3.0 | 4.0 | 0.00 | 0.00 | 0.00 | 94 | 1017.7 |
| 20260507124356 | 55 | 38 | 2.0 | 4.0 | 0.00 | 0.00 | 0.00 | 95 | 1017.9 |
| 20260507123855 | 54 | 135 | 0.0 | 2.0 | 0.00 | 0.00 | 0.00 | 95 | 1017.8 |
| 20260507123351 | 54 | 62 | 2.0 | 3.0 | 0.00 | 0.00 | 0.00 | 96 | 1017.9 |
| 20260507122848 | 53 | 76 | 0.0 | 2.0 | 0.00 | 0.00 | 0.00 | 96 | 1018.3 |
| 20260507122343 | 53 | 29 | 2.0 | 2.0 | 0.00 | 0.00 | 0.00 | 96 | 1018.3 |
| 20260507121840 | 53 | 310 | 0.0 | 2.0 | 0.00 | 0.00 | 0.00 | 96 | 1018.3 |
| 20260507121335 | 53 | 352 | 2.0 | 2.0 | 0.00 | 0.00 | 0.00 | 96 | 1018.4 |
| 20260507120832 | 53 | 13 | 1.0 | 2.0 | 0.00 | 0.00 | 0.00 | 96 | 1018.4 |
| 20260507120329 | 53 | 336 | 0.0 | 2.0 | 0.00 | 0.00 | 0.00 | 96 | 1018.0 |
| 20260507115825 | 53 | 343 | 0.0 | 2.0 | 0.00 | 0.00 | 0.00 | 96 | 1018.3 |
| 20260507115321 | 53 | 291 | 0.0 | 2.0 | 0.00 | 0.00 | 0.00 | 96 | 1018.2 |
| 20260507114816 | 53 | 215 | 0.0 | 2.0 | 0.00 | 0.00 | 0.00 | 95 | 1018.3 |
| 20260507114314 | 53 | 183 | 0.0 | 2.0 | 0.00 | 0.00 | 0.00 | 95 | 1017.9 |
| 20260507113811 | 53 | 141 | 0.0 | 1.0 | 0.00 | 0.00 | 0.00 | 95 | 1018.0 |
| 20260507113308 | 53 | 166 | 0.0 | 2.0 | 0.00 | 0.00 | 0.00 | 95 | 1018.1 |
| 20260507112806 | 53 | 73 | 1.0 | 1.0 | 0.00 | 0.00 | 0.00 | 95 | 1018.0 |
| 20260507112306 | 53 | 0 | 0.0 | 2.0 | 0.00 | 0.00 | 0.00 | 95 | 1017.9 |
| 20260507111801 | 53 | 269 | 0.0 | 2.0 | 0.00 | 0.00 | 0.00 | 95 | 1017.5 |
| 20260507111256 | 54 | 0 | 0.0 | 0.0 | 0.00 | 0.00 | 0.00 | 94 | 1017.5 |
| 20260507110753 | 54 | 0 | 0.0 | 2.0 | 0.00 | 0.00 | 0.00 | 94 | 1017.6 |
| 20260507110249 | 54 | 257 | 1.0 | 3.0 | 0.00 | 0.00 | 0.00 | 94 | 1017.7 |
| 20260507105747 | 54 | 311 | 1.0 | 3.0 | 0.00 | 0.00 | 0.00 | 94 | 1017.5 |
| 20260507105242 | 54 | 1 | 1.0 | 3.0 | 0.00 | 0.00 | 0.00 | 94 | 1017.4 |
| 20260507104740 | 54 | 332 | 2.0 | 3.0 | 0.00 | 0.00 | 0.00 | 94 | 1017.4 |
| 20260507104236 | 54 | 0 | 0.0 | 2.0 | 0.00 | 0.00 | 0.00 | 94 | 1017.1 |
| 20260507103732 | 54 | 353 | 0.0 | 3.0 | 0.00 | 0.00 | 0.00 | 94 | 1016.9 |
| 20260507103229 | 54 | 356 | 0.0 | 4.0 | 0.00 | 0.00 | 0.00 | 93 | 1016.9 |